STARLINK-32822, 62868

Orbit data source: Space-Track

STARLINK-32822, 62868 is a payload satellite owned by SpaceX/Seattle (US) in LEO that was launched on Sat, 01 Feb 2025 UTC via an FALCON 9 launch vehicle from the Air Force Western Test Range (AFWTR). Payload-class satellites include a variety of spacecraft equipped with specific instruments for various scientific and technological missions. These include communications satellites like Starlink; space stations such as the ISS; scientific satellites like the Hubble; Earth observation satellites from companies like Planet Labs, Umbra, and HawkEye 360; GPS; miniature CubeSats for education and research; and military/defense satellites.

Loading next visibility...
Identifier
62868, 2025-022Q
Orbit
LEO
Last TLE update
13 hours ago
Origin
Manufacturer
SpaceX/Seattle
Mission
Operational Commercial Communications
Bus & Motor
STARLINK V2M, Unknown motor
Mass
730 kg wet, ~700 kg dry
Launch date (UTC)
2025-02-01 (5 months ago)
Launch vehicle
FALCON 9
Launch site
Air Force Western Test Range (AFWTR)
Object type
Payload
Rocket body
Debris
Shape & HBR
Box + 2 Pan, 29 m
Radar Cross Section
33.884 m², Large (>1 m²)

Expand to show TLE details & history

TLE from 13 hours ago
0 STARLINK-32822
1 62868U 25022Q   25181.83039944  .00018248  00000-0  46491-3 0  9998
2 62868  53.1574 219.8820 0001091  93.2794 266.8335 15.39632027 23334
Epoch: 2025-06-30T19:55Z
TLE epoch observation values (Epoch: 2025-06-30T19:55:46.511Z)
Latitude
-0.00008°
Longitude
1.80357°
Altitude
448.141 km
Speed
7.645 km/s
True Right ascension
14h 39m 31s
True Declination
0° 00' 00"
Sunlit
Object was in full shadow at epoch
Visualization orbit readout
Latitude
33.9505°
Longitude
29.42682°
Altitude
449.051 km
Speed
7.648 km/s
Apparent Right ascension
12h 52m 56s
Apparent Declination
-3° 11' 26"
Sunlit
Object is in full shadow
Visualization observer readout
Local Sidereal Time
20:13:08
Azimuth
280.685° WNW
Elevation
-17.354°
Doppler factor
1
Orbital elements
Apogee altitude
448.199 km
Perigee altitude
446.71 km
Semi-major axis
6,825.591 km
Eccentricity
0.00011
Inclination
53.1574°
RAAN
219.882°
Arg. of periapsis
93.2794°
True anomaly
Unknown
Mean anomaly
266.8335°
Eccentric anomaly
Unknown
Mean motion
3.84887 °/min
Orbital period
93.53 mins
BSTAR
0.00046491
Loading maneuver chart data...
Loading SW <> Apogee altitude chart data...
Loading historical data...
Loading historical data...
Loading historical data...
Loading historical data...
Loading historical data...
Loading historical data...
Loading historical data...

STARLINK-32822 Visibility forecast

Observer location: undefined°, undefined°

Span
Click to sort rows by Start time (UTC) header in descending order
Start Az.
Max El. time (UTC)
Max El. Az.
Max El.
End time (UTC)
End Az.
5 mins2025-07-01 12:01:00.128Z317.626° NNW2025-07-01 12:03:00.128Z36.21° NE43.557°2025-07-01 12:06:00.128Z123.068° SE
5 mins2025-07-02 04:50:00.128Z212.658° SW2025-07-02 04:52:00.128Z134.33° SE41.835°2025-07-02 04:55:00.128Z56.753° ENE
4 mins2025-07-02 06:28:00.128Z300.435° NW2025-07-02 06:30:00.128Z346.38° N18.814°2025-07-02 06:32:00.128Z22.655° NE
|